Harlan, KY

8:18 AM EST on November 21, 2019 (GMT -0500)
Harlan

Weather History for KI35 - September, 2019

Change the Weather History Date:

Wednesday, September 4, 2019

  Actual Average (WUND) Record (WUND)
Temperature  
Mean Temperature 76 °F -  
Max Temperature 89 °F - - (-1)
Min Temperature 63 °F - - (-1)
Cooling Degree Days 11    
Growing Degree Days 26 (Base 50)    
Moisture  
Dew Point 66 °F    
Average Humidity 80    
Maximum Humidity 100    
Minimum Humidity 46    
Precipitation  
Precipitation 0.00 in - - ()
Sea Level Pressure  
Sea Level Pressure 30.08 in    
Wind  
Wind Speed 1 mph ()    
Max Wind Speed 8 mph    
Max Gust Speed -    
Visibility 6.6 miles    
Events      
Averages and records for this station are not official NWS values.
T = Trace of Precipitation, MM = Missing Value Source: Averaged Metar Reports

Daily Weather History Graph

Daily Weather History Graph

Search for Another Location

Airport or City:

Astronomy

Sep. 04, 2019 Rise Set
Actual Time 7:06 AM EDT 7:57 PM EDT
Civil Twilight 6:40 AM EDT 8:24 PM EDT
Nautical Twilight 6:08 AM EDT 8:55 PM EDT
Astronomical Twilight 5:36 AM EDT 9:27 PM EDT
Moon 12:57 PM EDT (9/4) 11:40 PM EDT (9/4)
Length of Visible Light 13h 43m
Length of Day
12h 51m
Waxing Crescent, 34% of the Moon is Illuminated
Sep 4
Waxing Crescent
Sep 5
First Quarter
Sep 14
Full
Sep 21
Last Quarter
Sep 28
New

Hourly Weather History & Observations

Time (EDT) Temp. Heat Index Dew Point Humidity Pressure Visibility Wind Dir Wind Speed Gust Speed Precip Events Conditions
12:15 AM 66.4 °F - 65.7 °F 98% 30.06 in 10.0 mi Calm Calm - N/A   Clear
12:35 AM 65.5 °F - 64.9 °F 98% 30.06 in 7.0 mi Calm Calm - N/A   Scattered Clouds
12:55 AM 65.3 °F - 64.6 °F 98% 30.05 in 10.0 mi Calm Calm - N/A   Clear
1:15 AM 64.9 °F - 64.4 °F 98% 30.05 in 7.0 mi Calm Calm - N/A   Clear
1:35 AM 64.8 °F - 64.6 °F 99% 30.05 in 1.0 mi Calm Calm - N/A   Overcast
1:55 AM 64.4 °F - 64.2 °F 99% 30.06 in 7.0 mi Calm Calm - N/A   Mostly Cloudy
2:15 AM 64.8 °F - 64.6 °F 99% 30.06 in 7.0 mi Calm Calm - N/A   Mostly Cloudy
2:35 AM 64.4 °F - 64.0 °F 99% 30.06 in 1.2 mi Calm Calm - N/A   Overcast
2:55 AM 64.4 °F - 64.2 °F 99% 30.06 in 2.5 mi Calm Calm - N/A   Overcast
3:35 AM 63.9 °F - 63.9 °F 100% 30.06 in 0.5 mi Calm Calm - N/A   Overcast
3:55 AM 64.0 °F - 64.0 °F 100% 30.07 in 0.5 mi Calm Calm - N/A   Overcast
4:15 AM 64.0 °F - 64.0 °F 100% 30.08 in 0.2 mi Calm Calm - N/A   Overcast
4:35 AM 64.4 °F - 64.4 °F 100% 30.09 in 0.8 mi Calm Calm - N/A   Overcast
4:55 AM 64.2 °F - 64.0 °F 99% 30.09 in 0.5 mi Calm Calm - N/A   Overcast
5:15 AM 63.7 °F - 63.7 °F 100% 30.09 in 0.8 mi Calm Calm - N/A   Overcast
5:35 AM 63.9 °F - 63.9 °F 100% 30.10 in 0.5 mi Calm Calm - N/A   Overcast
5:55 AM 63.3 °F - 63.3 °F 100% 30.11 in 0.5 mi Calm Calm - N/A   Overcast
6:15 AM 63.3 °F - 63.1 °F 99% 30.12 in 0.8 mi Calm Calm - N/A   Overcast
6:35 AM 63.0 °F - 63.0 °F 100% 30.12 in 0.8 mi Calm Calm - N/A   Overcast
6:55 AM 63.0 °F - 63.0 °F 100% 30.12 in 0.8 mi Calm Calm - N/A   Overcast
7:15 AM 63.0 °F - 63.0 °F 100% 30.13 in 0.2 mi Calm Calm - N/A   Overcast
7:35 AM 63.0 °F - 63.0 °F 100% 30.14 in 0.2 mi Calm Calm - N/A   Overcast
7:55 AM 63.3 °F - 63.3 °F 100% 30.14 in 0.2 mi Calm Calm - N/A   Overcast
8:15 AM 63.3 °F - 63.3 °F 100% 30.14 in 0.2 mi Calm Calm - N/A   Overcast
8:35 AM 63.5 °F - 63.5 °F 100% 30.14 in 0.2 mi Calm Calm - N/A   Overcast
8:55 AM 64.2 °F - 64.2 °F 100% 30.14 in 0.2 mi Calm Calm - N/A   Overcast
9:15 AM 63.9 °F - 63.5 °F 99% 30.14 in 0.5 mi Calm Calm - N/A   Overcast
9:35 AM 64.4 °F - 64.0 °F 99% 30.14 in 0.8 mi Calm Calm - N/A   Overcast
9:55 AM 65.3 °F - 64.2 °F 96% 30.14 in 7.0 mi Calm Calm - N/A   Overcast
10:15 AM 68.4 °F - 65.3 °F 90% 30.13 in 10.0 mi Calm Calm - N/A   Scattered Clouds
10:35 AM 72.7 °F - 66.4 °F 81% 30.13 in 10.0 mi Calm Calm - N/A   Clear
10:55 AM 72.9 °F - 66.0 °F 79% 30.13 in 10.0 mi Calm Calm - N/A   Clear
11:15 AM 75.0 °F - 66.7 °F 75% 30.13 in 10.0 mi Calm Calm - N/A   Clear
11:35 AM 78.1 °F - 66.0 °F 66% 30.12 in 10.0 mi Calm Calm - N/A   Clear
11:55 AM 79.0 °F - 66.6 °F 66% 30.12 in 10.0 mi Calm Calm - N/A   Scattered Clouds
12:15 PM 80.2 °F 82.3 °F 66.0 °F 62% 30.11 in 10.0 mi Calm Calm - N/A   Scattered Clouds
12:35 PM 82.2 °F 84.2 °F 65.5 °F 57% 30.11 in 10.0 mi SSW 3.5 mph - N/A   Clear
12:55 PM 83.1 °F 85.0 °F 65.5 °F 55% 30.10 in 10.0 mi SW 4.6 mph - N/A   Clear
1:15 PM 84.6 °F 87.1 °F 66.9 °F 55% 30.09 in 10.0 mi Calm Calm - N/A   Clear
1:35 PM 84.4 °F 86.8 °F 66.6 °F 55% 30.08 in 10.0 mi SSW 4.6 mph - N/A   Clear
1:55 PM 84.0 °F 86.3 °F 66.0 °F 55% 30.08 in 10.0 mi Calm Calm - N/A   Clear
2:15 PM 84.7 °F 87.1 °F 66.6 °F 54% 30.08 in 10.0 mi SSW 3.5 mph - N/A   Clear
2:35 PM 85.8 °F 88.5 °F 66.7 °F 53% 30.07 in 10.0 mi South 4.6 mph - N/A   Clear
2:55 PM 86.5 °F 89.3 °F 66.9 °F 52% 30.06 in 10.0 mi West 5.8 mph - N/A   Scattered Clouds
3:15 PM 85.6 °F 88.8 °F 67.8 °F 55% 30.05 in 10.0 mi Calm Calm - N/A   Mostly Cloudy
3:35 PM 85.6 °F 88.8 °F 68.0 °F 55% 30.05 in 10.0 mi Calm Calm - N/A   Overcast
3:55 PM 86.0 °F 89.1 °F 67.8 °F 54% 30.04 in 10.0 mi Calm Calm - N/A   Mostly Cloudy
4:15 PM 87.4 °F 89.8 °F 66.4 °F 49% 30.04 in 10.0 mi North 5.8 mph - N/A   Scattered Clouds
4:35 PM 89.1 °F 91.3 °F 65.8 °F 46% 30.03 in 10.0 mi West 8.1 mph - N/A   Scattered Clouds
4:55 PM 88.2 °F 90.3 °F 65.8 °F 47% 30.03 in 10.0 mi WNW 6.9 mph - N/A   Scattered Clouds
5:15 PM 88.0 °F 90.7 °F 66.6 °F 49% 30.03 in 10.0 mi WNW 5.8 mph - N/A   Clear
5:35 PM 88.5 °F 91.6 °F 66.9 °F 49% 30.03 in 10.0 mi North 3.5 mph - N/A   Clear
5:55 PM 89.1 °F 92.1 °F 67.1 °F 48% 30.03 in 10.0 mi Calm Calm - N/A   Scattered Clouds
6:15 PM 87.1 °F 89.5 °F 66.6 °F 50% 30.03 in 10.0 mi NNW 4.6 mph - N/A   Clear
6:35 PM 86.5 °F 89.3 °F 67.3 °F 52% 30.03 in 10.0 mi North 3.5 mph - N/A   Clear
6:55 PM 85.1 °F 88.5 °F 68.5 °F 57% 30.03 in 10.0 mi Calm Calm - N/A   Scattered Clouds
7:15 PM 83.8 °F 87.3 °F 68.7 °F 60% 30.03 in 10.0 mi Calm Calm - N/A   Scattered Clouds
7:35 PM 80.6 °F 83.6 °F 69.1 °F 68% 30.03 in 10.0 mi North 3.5 mph - N/A   Clear
7:55 PM 79.2 °F - 68.9 °F 71% 30.03 in 10.0 mi Calm Calm - N/A   Clear
8:15 PM 78.1 °F - 69.4 °F 75% 30.03 in 10.0 mi Calm Calm - N/A   Clear
8:35 PM 77.7 °F - 69.3 °F 75% 30.03 in 10.0 mi Calm Calm - N/A   Clear
8:55 PM 75.2 °F - 70.0 °F 84% 30.04 in 10.0 mi Calm Calm - N/A   Scattered Clouds
9:15 PM 75.4 °F - 70.7 °F 85% 30.04 in 10.0 mi Calm Calm - N/A   Mostly Cloudy
9:35 PM 75.0 °F - 70.7 °F 86% 30.05 in 10.0 mi Calm Calm - N/A   Scattered Clouds
9:55 PM 72.9 °F - 70.7 °F 93% 30.05 in 10.0 mi Calm Calm - N/A   Clear
10:15 PM 72.5 °F - 70.7 °F 94% 30.05 in 10.0 mi Calm Calm - N/A   Clear
10:35 PM 72.1 °F - 70.5 °F 95% 30.05 in 7.0 mi Calm Calm - N/A   Clear
10:55 PM 71.6 °F - 70.2 °F 95% 30.05 in 7.0 mi Calm Calm - N/A   Clear
11:15 PM 72.0 °F - 70.0 °F 93% 30.05 in 7.0 mi Calm Calm - N/A   Clear
11:35 PM 71.1 °F - 69.8 °F 96% 30.04 in 7.0 mi Calm Calm - N/A   Clear
11:55 PM 70.3 °F - 69.6 °F 98% 30.04 in 5.0 mi Calm Calm - N/A   Clear